Weather History for Palmdale, CA

Change the Weather History Date:

Friday, October 5, 2012

  Actual Average Record
Temperature  
Mean Temperature 72 °F 67 °F  
Max Temperature 85 °F 83 °F 105 °F (1980)
Min Temperature 59 °F 51 °F 32 °F (1969)
Degree Days  
Heating Degree Days 0 2  
Month to date heating degree days 0 7  
Since 1 July heating degree days 0 19  
Cooling Degree Days 7 4  
Month to date cooling degree days 67 21  
Year to date cooling degree days 2263 1778  
Growing Degree Days 24 (Base 50)    
Moisture  
Dew Point 37 °F    
Average Humidity 34    
Maximum Humidity 52    
Minimum Humidity 16    
Precipitation  
Precipitation 0.00 in 0.01 in 0.27 in (1983)
Month to date precipitation 0.00 0.04  
Year to date precipitation 1.79 5.89  
Since 1 July precipitation T 0.57  
Snow  
Snow 0.00 in - - ()
Month to date snowfall 0.0  
Since 1 July snowfall 0.0  
Since 1 September snowfall 0.0  
Snow Depth 0.00 in    
Sea Level Pressure  
Sea Level Pressure 30.00 in    
Wind  
Wind Speed 13 mph (West)    
Max Wind Speed 31 mph    
Max Gust Speed 36 mph    
Visibility 10 miles    
Events      
T = Trace of Precipitation, MM = Missing Value Source: NWS Daily Summary

Daily Weather History Graph

Daily Weather History Graph

Search for Another Location

Airport:

Trip Planner

Search our weather history database for the weather conditions in past years. The results will help you decide how hot, cold, wet, or windy it might be!

Date:

Astronomy

Oct. 05, 2012 Rise Set
Actual Time 6:50 AM PDT 6:30 PM PDT
Civil Twilight 6:25 AM PDT 6:55 PM PDT
Nautical Twilight 5:56 AM PDT 7:24 PM PDT
Astronomical Twilight 5:26 AM PDT 7:53 PM PDT
Moon 10:08 PM PDT (10/5) 11:50 AM PDT (10/5)
Length of Visible Light 12h 29m
Length of Day
11h 39m
Waning Gibbous, 73% of the Moon is Illuminated
Oct 5
Waning Gibbous
Oct 8
Last Quarter
Oct 15
New
Oct 21
First Quarter
Oct 29
Full

Hourly Weather History & Observations

Time (PDT) Temp. Dew Point Humidity Pressure Visibility Wind Dir Wind Speed Gust Speed Precip Events Conditions
12:53 AM 69.8 °F 37.4 °F 31% 30.09 in 10.0 mi SW 6.9 mph - N/A   Clear
1:53 AM 66.9 °F 37.0 °F 33% 30.01 in 10.0 mi SW 10.4 mph - N/A   Clear
2:53 AM 66.0 °F 39.0 °F 37% 30.01 in 10.0 mi WSW 6.9 mph - N/A   Clear
3:53 AM 66.9 °F 44.1 °F 44% 30.00 in 10.0 mi West 15.0 mph 19.6 mph N/A   Clear
4:53 AM 66.0 °F 46.0 °F 48% 30.01 in 10.0 mi West 11.5 mph - N/A   Clear
5:53 AM 64.9 °F 46.0 °F 50% 30.01 in 10.0 mi WSW 5.8 mph - N/A   Clear
6:53 AM 63.0 °F 45.0 °F 52% 30.03 in 10.0 mi South 4.6 mph - N/A   Clear
7:53 AM 66.9 °F 46.0 °F 47% 30.04 in 10.0 mi WSW 3.5 mph - N/A   Clear
8:53 AM 72.0 °F 42.1 °F 34% 30.04 in 10.0 mi West 6.9 mph - N/A   Clear
9:53 AM 77.0 °F 37.4 °F 24% 30.11 in 10.0 mi WNW 13.8 mph - N/A   Clear
10:53 AM 79.0 °F 37.0 °F 22% 30.02 in 10.0 mi WNW 11.5 mph - N/A   Clear
11:53 AM 82.0 °F 37.9 °F 21% 30.01 in 10.0 mi NW 10.4 mph 17.3 mph N/A   Clear
12:53 PM 82.9 °F 37.0 °F 19% 29.99 in 10.0 mi WNW 11.5 mph 19.6 mph N/A   Clear
1:53 PM 84.0 °F 35.1 °F 17% 29.96 in 10.0 mi NW 16.1 mph 19.6 mph N/A   Clear
2:53 PM 84.0 °F 34.0 °F 17% 29.94 in 10.0 mi WNW 23.0 mph - N/A   Clear
3:53 PM 82.0 °F 34.0 °F 18% 29.94 in 10.0 mi WNW 21.9 mph - N/A   Clear
4:53 PM 80.1 °F 34.0 °F 19% 29.94 in 10.0 mi WNW 27.6 mph 35.7 mph N/A   Clear
5:53 PM 75.0 °F 34.0 °F 22% 29.95 in 10.0 mi WNW 24.2 mph - N/A   Clear
6:53 PM 73.0 °F 34.0 °F 24% 29.96 in 10.0 mi West 23.0 mph - N/A   Clear
7:53 PM 71.1 °F 34.0 °F 26% 29.97 in 10.0 mi WNW 18.4 mph - N/A   Clear
8:53 PM 70.0 °F 33.1 °F 26% 29.97 in 10.0 mi West 6.9 mph - N/A   Clear
9:53 PM 68.0 °F 32.0 °F 26% 29.96 in 10.0 mi SW 4.6 mph - N/A   Clear
10:53 PM 66.9 °F 30.9 °F 26% 29.96 in 10.0 mi West 10.4 mph - N/A   Clear
11:53 PM 64.9 °F 30.9 °F 28% 29.96 in 10.0 mi SW 8.1 mph - N/A   Clear